Home   Weather   Ely   Past weeks

Flag for United Kingdom Past Weather in Ely, England, United Kingdom — Yesterday and Last 2 Weeks

Now
32 °F

Ice fog.


Feels Like: 32 °F
Forecast: 32 / 46 °F
Wind: No wind

Location: Mildenhall Royal Air Force Base

Current Time: Dec 6, 2016 at 5:57:27 am

Latest Report: Dec 6, 2016 at 4:58 am


Visibility: 0 mi

Pressure: 30.31 "Hg

Humidity: 100%

Dew Point: 32 °F

Location of ElyLocation

Past Weather in Ely — Graph

°F

Ely Temperature Yesterday

Maximum temperature yesterday: 45 °F (at 12:58 pm)
Minimum temperature yesterday: 25 °F (at 7:58 am)
Average temperature yesterday: 34 °F

High & Low Weather Summary for the Past Weeks

 TemperatureHumidityPressure
High54 °F (Nov 21, 2:04 pm)100% (Nov 21, 4:00 am)30.57 "Hg (Nov 21, 4:00 am)
Low25 °F (Nov 29, 5:58 am)60% (Nov 28, 11:58 am)29.11 "Hg (Nov 21, 3:03 pm)
Average41 °F96%30.18 "Hg
* Reported Nov 21 4:00 am — Dec 6 3:58 am, Ely, Weather by CustomWeather, © 2016

Note: Actual official high and low records may vary slightly from our data, if they occured in-between our weather recording intervals... More about our weather records

Advertising

Ely Weather History for the Previous 24 Hours

Scroll right to see more
 ConditionsComfort  
Time TempWeatherWind HumidityBarometerVisibility
3:58 am
Tue, Dec 6
32 °FFog.No wind100%30.32 "Hg0 mi
2:58 am32 °FIce fog.No wind100%30.32 "Hg0 mi
1:57 am32 °FIce fog.No wind100%30.30 "Hg1 mi
12:58 am33 °FFog.3 mph100%30.30 "Hg0 mi
11:58 pm
Mon, Dec 5
34 °FFog.No wind100%30.30 "Hg0 mi
11:02 pm34 °FFog.5 mph100%30.29 "Hg0 mi
10:04 pm32 °FIce fog.No wind100%30.28 "Hg1 mi
9:01 pm36 °FFog.5 mph100%30.28 "Hg1 mi
8:58 pm35 °FFog.5 mph100%30.29 "Hg1 mi
7:58 pm36 °FFog.6 mph100%30.28 "Hg3 mi
7:01 pm36 °FFog.5 mph100%30.28 "Hg3 mi
6:58 pm36 °FFog.5 mph100%30.29 "Hg4 mi
5:58 pm36 °FFog.No wind100%30.28 "Hg1 mi
5:01 pm37 °FFog.3 mph100%30.27 "Hg4 mi
4:58 pm37 °FFog.3 mph100%30.28 "Hg5 mi
3:58 pm39 °FPassing clouds.5 mph100%30.27 "HgN/A
2:58 pm43 °FScattered clouds.3 mph100%30.26 "HgN/A
1:58 pm44 °FSunny.3 mph100%30.25 "HgN/A
12:58 pm45 °FSunny.3 mph100%30.25 "HgN/A
11:58 am42 °FSunny.3 mph100%30.26 "HgN/A
10:58 am39 °FSunny.No wind100%30.26 "HgN/A
9:58 am33 °FFog.No wind99%30.27 "Hg5 mi
8:58 am27 °FIce fog.3 mph100%30.26 "Hg6 mi
7:58 am25 °FIce fog.3 mph100%30.26 "Hg3 mi
6:58 am26 °FIce fog.No wind100%30.25 "Hg3 mi
5:58 am27 °FIce fog.No wind100%30.25 "Hg4 mi
Weather by CustomWeather, © 2016

See weather overviewHow to use our weather pages